JST,Max TemperatureF,Mean TemperatureF,Min TemperatureF,Max Dew PointF,MeanDew PointF,Min DewpointF,Max Humidity, Mean Humidity, Min Humidity, Max Sea Level PressureIn, Mean Sea Level PressureIn, Min Sea Level PressureIn, Max VisibilityMiles, Mean VisibilityMiles, Min VisibilityMiles, Max Wind SpeedMPH, Mean Wind SpeedMPH, Max Gust SpeedMPH,PrecipitationIn, CloudCover, Events, WindDirDegrees
2013-5-1,62,56,50,43,40,37,76,54,42,29.77,29.68,29.62,6,6,6,24,13,32,0.00,3,Rain,329
2013-5-2,60,51,42,41,36,32,81,50,34,29.92,29.88,29.86,6,6,6,17,9,29,0.00,2,Rain,343
2013-5-3,64,55,46,48,41,36,77,54,39,30.01,29.96,29.92,6,6,6,17,5,,0.00,4,Rain,273
2013-5-4,68,57,46,45,41,36,81,50,30,30.06,30.01,29.95,6,6,6,17,6,,0.00,3,Rain,325
2013-5-5,69,58,48,46,43,39,87,50,35,30.12,30.06,30.01,6,6,6,9,5,,0.00,1,,243
2013-5-6,75,62,50,48,41,36,82,41,25,30.01,29.92,29.83,6,6,6,18,7,29,0.00,1,,251
2013-5-7,68,62,53,41,35,32,58,39,28,30.12,30.07,30.04,6,6,6,21,15,32,0.00,2,,349
2013-5-8,69,58,48,43,38,36,66,42,31,30.15,30.09,30.01,6,6,6,10,6,,0.00,1,,238
2013-5-9,80,65,50,41,30,21,58,27,11,30.04,29.97,29.89,,,,10,4,,0.00,,,233
2013-5-10,71,63,55,61,53,39,94,72,42,29.86,29.76,29.71,6,4,2,8,4,,0.00,6,Rain,86
2013-5-11,66,64,62,64,62,59,94,91,83,29.65,29.61,29.59,6,3,1,7,4,,0.00,6,Rain,89
2013-5-12,77,64,51,52,49,45,94,50,32,29.80,29.78,29.74,6,6,6,7,4,,0.00,1,Fog,235
2013-5-13,80,68,55,57,49,39,82,47,23,29.95,29.92,29.86,,,,13,6,,0.00,,,229
2013-5-14,84,72,60,57,54,45,82,49,25,29.98,29.92,29.86,6,6,6,8,4,,0.00,1,,232
2013-5-15,77,70,62,61,56,54,82,58,44,29.98,29.91,29.86,6,6,6,17,7,34,0.00,1,,243
2013-5-16,75,68,62,54,50,48,68,53,43,30.04,29.99,29.95,6,6,6,18,12,,0.00,3,,347
2013-5-17,80,68,57,50,45,43,63,43,28,30.09,30.00,29.92,6,6,6,12,8,,0.00,1,,285
2013-5-18,77,67,57,54,50,45,77,49,36,30.01,29.91,29.83,6,6,6,14,6,,0.00,1,,235
2013-5-19,73,68,62,61,56,45,94,72,36,29.71,29.59,29.53,6,5,3,12,7,,0.00,6,Rain,79
2013-5-20,80,72,64,63,60,55,88,65,44,29.59,29.57,29.53,6,6,6,8,4,,0.00,4,,165
2013-5-21,82,73,64,61,59,55,83,57,42,29.74,29.70,29.68,6,6,6,8,5,,0.00,2,,240
2013-5-22,86,75,64,63,55,39,83,49,23,29.86,29.80,29.74,6,5,5,10,4,,0.00,1,,222
2013-5-23,87,74,62,50,42,34,55,31,18,29.92,29.87,29.83,6,6,6,17,11,,0.00,1,,332
2013-5-24,86,72,57,43,40,36,59,29,17,29.98,29.91,29.86,6,6,6,9,5,,0.00,1,,265
2013-5-25,86,72,59,54,51,45,59,42,29,30.06,30.03,30.01,6,6,6,15,8,26,0.00,1,,240
2013-5-26,84,74,64,59,53,45,77,48,26,30.15,30.12,30.09,6,6,6,17,7,23,0.00,1,,216
2013-5-27,80,74,68,57,54,48,68,48,34,30.12,30.09,30.06,6,6,6,15,9,,0.00,3,,91
2013-5-28,75,72,68,63,59,57,83,67,53,30.06,30.03,30.01,6,6,6,17,12,,0.00,6,Rain,81
2013-5-29,77,72,68,68,65,63,83,75,69,29.89,29.85,29.80,6,6,6,13,9,,0.00,6,Rain,66
2013-5-30,78,74,69,70,64,57,94,73,61,29.83,29.81,29.80,6,5,4,12,5,,0.00,6,Rain,291
2013-5-31,84,70,57,55,50,41,88,45,22,29.86,29.81,29.74,6,6,6,12,5,,0.00,1,,36